| time (UTC) | temp F | wind direction | speed MPH | gust MPH | rain 1hr in | rain 24hr in | rain mn in | humidity % | barometer mb |
| 20260510152802 | 50 | 345 | 7.0 | 13.0 | 0.00 | 0.00 | 0.00 | 68 | 1019.3 |
| 20260510152306 | 50 | 341 | 9.0 | 16.0 | 0.00 | 0.00 | 0.00 | 68 | 1019.3 |
| 20260510151802 | 50 | 333 | 7.0 | 16.0 | 0.00 | 0.00 | 0.00 | 67 | 1019.2 |
| 20260510151302 | 50 | 2 | 7.0 | 14.0 | 0.00 | 0.00 | 0.00 | 67 | 1019.2 |
| 20260510150302 | 51 | 357 | 8.0 | 18.0 | 0.00 | 0.00 | 0.00 | 68 | 1019.5 |
| 20260510145802 | 51 | 10 | 7.0 | 16.0 | 0.00 | 0.00 | 0.00 | 67 | 1019.6 |
| 20260510145305 | 51 | 16 | 8.0 | 15.0 | 0.00 | 0.00 | 0.00 | 67 | 1019.7 |
| 20260510144303 | 50 | 358 | 9.0 | 17.0 | 0.00 | 0.00 | 0.00 | 67 | 1019.5 |
| 20260510143802 | 50 | 5 | 9.0 | 15.0 | 0.00 | 0.00 | 0.00 | 68 | 1019.6 |
| 20260510143302 | 50 | 355 | 11.0 | 17.0 | 0.00 | 0.00 | 0.00 | 67 | 1019.9 |
| 20260510142802 | 50 | 334 | 11.0 | 17.0 | 0.00 | 0.00 | 0.00 | 68 | 1019.8 |
| 20260510142305 | 50 | 347 | 7.0 | 17.0 | 0.00 | 0.00 | 0.00 | 70 | 1020.0 |
| 20260510141804 | 50 | 0 | 12.0 | 18.0 | 0.00 | 0.00 | 0.00 | 69 | 1019.8 |
| 20260510141302 | 50 | 344 | 7.0 | 16.0 | 0.00 | 0.00 | 0.00 | 71 | 1019.9 |
| 20260510140802 | 50 | 358 | 11.0 | 18.0 | 0.00 | 0.00 | 0.00 | 69 | 1020.1 |
| 20260510140302 | 50 | 6 | 7.0 | 17.0 | 0.00 | 0.00 | 0.00 | 71 | 1020.1 |
| 20260510135803 | 50 | 341 | 7.0 | 14.0 | 0.00 | 0.00 | 0.00 | 72 | 1020.1 |
| 20260510135305 | 50 | 349 | 12.0 | 20.0 | 0.00 | 0.00 | 0.00 | 71 | 1020.0 |
| 20260510134302 | 50 | 0 | 9.0 | 20.0 | 0.00 | 0.00 | 0.00 | 71 | 1020.0 |
| 20260510133304 | 50 | 351 | 9.0 | 17.0 | 0.00 | 0.00 | 0.00 | 72 | 1020.1 |
| 20260510132803 | 50 | 340 | 9.0 | 15.0 | 0.00 | 0.00 | 0.00 | 70 | 1020.2 |
| 20260510131802 | 51 | 8 | 10.0 | 18.0 | 0.00 | 0.00 | 0.00 | 71 | 1020.4 |
| 20260510131302 | 50 | 347 | 10.0 | 16.0 | 0.00 | 0.00 | 0.00 | 72 | 1020.4 |
| 20260510130802 | 50 | 5 | 10.0 | 17.0 | 0.00 | 0.00 | 0.00 | 70 | 1020.4 |
| 20260510130302 | 50 | 356 | 11.0 | 20.0 | 0.00 | 0.00 | 0.00 | 72 | 1020.4 |
| 20260510125802 | 51 | 353 | 8.0 | 17.0 | 0.00 | 0.00 | 0.00 | 71 | 1020.3 |
| 20260510125302 | 50 | 2 | 11.0 | 18.0 | 0.00 | 0.00 | 0.00 | 72 | 1020.5 |
| 20260510124802 | 50 | 340 | 10.0 | 16.0 | 0.00 | 0.00 | 0.00 | 72 | 1020.5 |
| 20260510124302 | 50 | 337 | 9.0 | 20.0 | 0.00 | 0.00 | 0.00 | 74 | 1020.6 |
| 20260510123302 | 50 | 331 | 9.0 | 15.0 | 0.00 | 0.00 | 0.00 | 73 | 1020.8 |
| 20260510122802 | 51 | 349 | 10.0 | 17.0 | 0.00 | 0.00 | 0.00 | 73 | 1020.9 |
| 20260510122306 | 51 | 347 | 13.0 | 20.0 | 0.00 | 0.00 | 0.00 | 73 | 1020.7 |
| 20260510121303 | 51 | 353 | 7.0 | 17.0 | 0.00 | 0.00 | 0.00 | 73 | 1021.0 |
| 20260510120802 | 51 | 346 | 11.0 | 17.0 | 0.00 | 0.00 | 0.00 | 74 | 1020.7 |
| 20260510120302 | 51 | 359 | 8.0 | 15.0 | 0.00 | 0.00 | 0.00 | 72 | 1020.9 |
| 20260510115802 | 51 | 352 | 10.0 | 18.0 | 0.00 | 0.00 | 0.00 | 71 | 1020.8 |
| 20260510115305 | 51 | 344 | 9.0 | 20.0 | 0.00 | 0.00 | 0.00 | 72 | 1021.0 |
| 20260510114802 | 51 | 7 | 11.0 | 18.0 | 0.00 | 0.00 | 0.00 | 70 | 1021.1 |
| 20260510114302 | 52 | 355 | 7.0 | 15.0 | 0.00 | 0.00 | 0.00 | 72 | 1021.1 |
| 20260510113302 | 51 | 0 | 9.0 | 17.0 | 0.00 | 0.00 | 0.00 | 72 | 1021.1 |
| 20260510112802 | 51 | 330 | 10.0 | 20.0 | 0.00 | 0.00 | 0.00 | 72 | 1021.2 |
| 20260510112305 | 51 | 2 | 11.0 | 20.0 | 0.00 | 0.00 | 0.00 | 70 | 1021.1 |
| 20260510111802 | 51 | 357 | 12.0 | 18.0 | 0.00 | 0.00 | 0.00 | 71 | 1021.2 |
| 20260510111303 | 51 | 349 | 11.0 | 18.0 | 0.00 | 0.00 | 0.00 | 72 | 1021.1 |
| 20260510110802 | 51 | 351 | 10.0 | 18.0 | 0.00 | 0.00 | 0.00 | 75 | 1021.1 |
| 20260510110303 | 51 | 339 | 12.0 | 21.0 | 0.00 | 0.00 | 0.00 | 75 | 1021.3 |
| 20260510105306 | 51 | 346 | 12.0 | 20.0 | 0.00 | 0.00 | 0.00 | 73 | 1021.2 |
| 20260510104802 | 51 | 342 | 9.0 | 16.0 | 0.00 | 0.00 | 0.00 | 76 | 1021.3 |
| 20260510104303 | 50 | 356 | 10.0 | 18.0 | 0.00 | 0.00 | 0.00 | 74 | 1021.3 |
| 20260510103802 | 50 | 8 | 13.0 | 18.0 | 0.00 | 0.00 | 0.00 | 75 | 1021.4 |
| 20260510103302 | 50 | 336 | 8.0 | 20.0 | 0.00 | 0.00 | 0.00 | 76 | 1021.4 |
| 20260510102802 | 50 | 357 | 10.0 | 20.0 | 0.00 | 0.00 | 0.00 | 76 | 1021.5 |
| 20260510102305 | 50 | 355 | 7.0 | 15.0 | 0.00 | 0.00 | 0.00 | 77 | 1021.5 |
| 20260510101803 | 50 | 0 | 6.0 | 16.0 | 0.00 | 0.00 | 0.00 | 77 | 1021.5 |
| 20260510101302 | 50 | 345 | 10.0 | 21.0 | 0.00 | 0.00 | 0.00 | 76 | 1021.6 |
| 20260510100802 | 50 | 345 | 12.0 | 20.0 | 0.00 | 0.00 | 0.00 | 76 | 1021.6 |
| 20260510100302 | 51 | 339 | 11.0 | 20.0 | 0.00 | 0.00 | 0.00 | 76 | 1021.5 |
| 20260510095803 | 51 | 9 | 12.0 | 20.0 | 0.00 | 0.00 | 0.00 | 76 | 1021.5 |
| 20260510095305 | 51 | 347 | 10.0 | 18.0 | 0.00 | 0.00 | 0.00 | 75 | 1021.6 |
| 20260510094302 | 50 | 345 | 9.0 | 21.0 | 0.00 | 0.00 | 0.00 | 75 | 1021.7 |
| 20260510092306 | 50 | 343 | 7.0 | 14.0 | 0.00 | 0.00 | 0.00 | 77 | 1021.9 |
| 20260510091803 | 50 | 358 | 12.0 | 20.0 | 0.00 | 0.00 | 0.00 | 77 | 1021.8 |
| 20260510091303 | 50 | 3 | 7.0 | 16.0 | 0.00 | 0.00 | 0.00 | 78 | 1021.8 |
| 20260510090802 | 50 | 353 | 9.0 | 15.0 | 0.00 | 0.00 | 0.00 | 78 | 1021.8 |
| 20260510090302 | 50 | 341 | 7.0 | 16.0 | 0.00 | 0.00 | 0.00 | 77 | 1021.7 |
| 20260510085802 | 50 | 3 | 10.0 | 16.0 | 0.00 | 0.00 | 0.00 | 78 | 1021.7 |
| 20260510085306 | 50 | 344 | 9.0 | 16.0 | 0.00 | 0.00 | 0.00 | 78 | 1021.6 |
| 20260510084803 | 50 | 8 | 10.0 | 15.0 | 0.00 | 0.00 | 0.00 | 78 | 1021.6 |
| 20260510084302 | 50 | 351 | 8.0 | 17.0 | 0.00 | 0.00 | 0.00 | 79 | 1021.7 |
| 20260510083802 | 50 | 13 | 9.0 | 18.0 | 0.00 | 0.00 | 0.00 | 78 | 1021.8 |
| 20260510083302 | 50 | 344 | 7.0 | 16.0 | 0.00 | 0.00 | 0.00 | 78 | 1021.7 |
| 20260510081802 | 50 | 2 | 10.0 | 16.0 | 0.00 | 0.00 | 0.00 | 80 | 1021.7 |
| 20260510081304 | 50 | 341 | 9.0 | 18.0 | 0.00 | 0.00 | 0.00 | 81 | 1021.6 |
| 20260510080802 | 49 | 357 | 12.0 | 20.0 | 0.00 | 0.00 | 0.00 | 81 | 1021.6 |
| 20260510080304 | 49 | 7 | 8.0 | 16.0 | 0.00 | 0.00 | 0.00 | 82 | 1021.7 |
| 20260510075803 | 49 | 345 | 7.0 | 16.0 | 0.00 | 0.00 | 0.00 | 83 | 1021.6 |
| 20260510075305 | 49 | 346 | 8.0 | 18.0 | 0.00 | 0.00 | 0.00 | 82 | 1021.6 |
| 20260510074802 | 49 | 348 | 7.0 | 17.0 | 0.00 | 0.00 | 0.00 | 81 | 1021.7 |
| 20260510074302 | 49 | 356 | 9.0 | 15.0 | 0.00 | 0.00 | 0.00 | 80 | 1021.6 |
| 20260510073803 | 49 | 353 | 10.0 | 17.0 | 0.00 | 0.00 | 0.00 | 80 | 1021.7 |
| 20260510072802 | 49 | 354 | 6.0 | 13.0 | 0.00 | 0.00 | 0.00 | 80 | 1021.6 |
| 20260510072305 | 49 | 355 | 9.0 | 20.0 | 0.00 | 0.00 | 0.00 | 80 | 1021.5 |
| 20260510071802 | 49 | 358 | 9.0 | 17.0 | 0.00 | 0.00 | 0.00 | 80 | 1021.5 |
| 20260510071302 | 49 | 353 | 7.0 | 15.0 | 0.00 | 0.00 | 0.00 | 79 | 1021.4 |
| 20260510070802 | 49 | 349 | 9.0 | 17.0 | 0.00 | 0.00 | 0.00 | 79 | 1021.3 |
| 20260510070302 | 49 | 10 | 13.0 | 20.0 | 0.00 | 0.00 | 0.00 | 80 | 1021.3 |
| 20260510065803 | 49 | 355 | 10.0 | 15.0 | 0.00 | 0.00 | 0.00 | 80 | 1021.2 |
| 20260510065306 | 49 | 4 | 7.0 | 17.0 | 0.00 | 0.00 | 0.00 | 81 | 1021.2 |
| 20260510064803 | 49 | 356 | 9.0 | 17.0 | 0.00 | 0.00 | 0.00 | 81 | 1021.2 |
| 20260510064303 | 49 | 356 | 10.0 | 20.0 | 0.00 | 0.00 | 0.00 | 81 | 1021.2 |
| 20260510063302 | 49 | 356 | 11.0 | 20.0 | 0.00 | 0.00 | 0.00 | 81 | 1021.1 |
| 20260510062802 | 49 | 4 | 13.0 | 20.0 | 0.00 | 0.00 | 0.00 | 82 | 1021.1 |
| 20260510062306 | 49 | 352 | 12.0 | 20.0 | 0.00 | 0.00 | 0.00 | 83 | 1021.1 |
| 20260510061802 | 49 | 0 | 13.0 | 21.0 | 0.00 | 0.00 | 0.00 | 84 | 1021.1 |
| 20260510061302 | 49 | 347 | 10.0 | 16.0 | 0.00 | 0.00 | 0.00 | 85 | 1021.0 |
| 20260510060802 | 49 | 4 | 10.0 | 18.0 | 0.00 | 0.00 | 0.00 | 85 | 1021.1 |
| 20260510060303 | 49 | 3 | 11.0 | 20.0 | 0.00 | 0.00 | 0.00 | 86 | 1021.1 |
| 20260510055802 | 49 | 353 | 7.0 | 17.0 | 0.00 | 0.00 | 0.00 | 86 | 1021.0 |
| 20260510055306 | 49 | 1 | 6.0 | 16.0 | 0.00 | 0.00 | 0.00 | 87 | 1021.0 |
| 20260510054803 | 49 | 354 | 10.0 | 18.0 | 0.00 | 0.00 | 0.00 | 87 | 1021.0 |
| 20260510053803 | 49 | 355 | 10.0 | 20.0 | 0.00 | 0.00 | 0.00 | 87 | 1021.1 |
| 20260510053303 | 49 | 340 | 7.0 | 17.0 | 0.00 | 0.00 | 0.00 | 87 | 1021.1 |
| 20260510052803 | 49 | 341 | 9.0 | 18.0 | 0.00 | 0.00 | 0.00 | 87 | 1021.1 |
| 20260510052306 | 49 | 344 | 7.0 | 16.0 | 0.00 | 0.00 | 0.00 | 88 | 1021.2 |
| 20260510051803 | 49 | 337 | 9.0 | 17.0 | 0.00 | 0.00 | 0.00 | 88 | 1021.2 |
| 20260510051302 | 49 | 343 | 11.0 | 18.0 | 0.00 | 0.00 | 0.00 | 88 | 1021.1 |
| 20260510050804 | 49 | 328 | 9.0 | 17.0 | 0.00 | 0.00 | 0.00 | 88 | 1021.1 |
| 20260510050304 | 49 | 344 | 9.0 | 20.0 | 0.00 | 0.00 | 0.00 | 88 | 1021.2 |
| 20260510045802 | 49 | 342 | 8.0 | 15.0 | 0.00 | 0.00 | 0.00 | 88 | 1021.2 |
| 20260510045306 | 49 | 340 | 8.0 | 18.0 | 0.00 | 0.00 | 0.00 | 88 | 1021.1 |
| 20260510044803 | 49 | 358 | 10.0 | 18.0 | 0.00 | 0.00 | 0.00 | 88 | 1021.1 |
| 20260510044304 | 49 | 339 | 9.0 | 20.0 | 0.00 | 0.00 | 0.00 | 88 | 1021.0 |
| 20260510043802 | 49 | 341 | 10.0 | 18.0 | 0.00 | 0.00 | 0.00 | 88 | 1021.0 |
| 20260510043302 | 49 | 335 | 7.0 | 14.0 | 0.00 | 0.00 | 0.00 | 88 | 1021.0 |
| 20260510041803 | 50 | 331 | 7.0 | 17.0 | 0.00 | 0.00 | 0.00 | 88 | 1021.0 |
| 20260510040803 | 49 | 342 | 6.0 | 13.0 | 0.00 | 0.00 | 0.00 | 88 | 1021.0 |
| 20260510034802 | 50 | 343 | 7.0 | 12.0 | 0.00 | 0.00 | 0.00 | 88 | 1021.2 |
| 20260510034302 | 50 | 359 | 6.0 | 12.0 | 0.00 | 0.00 | 0.00 | 88 | 1021.2 |
| 20260510033802 | 50 | 348 | 8.0 | 17.0 | 0.00 | 0.00 | 0.00 | 88 | 1021.2 |
| 20260510033303 | 50 | 332 | 9.0 | 20.0 | 0.00 | 0.00 | 0.00 | 88 | 1021.2 |
| 20260510032804 | 50 | 340 | 9.0 | 15.0 | 0.00 | 0.00 | 0.00 | 88 | 1021.2 |
| 20260510031303 | 50 | 352 | 7.0 | 16.0 | 0.00 | 0.00 | 0.00 | 89 | 1021.3 |
| 20260510030804 | 50 | 341 | 9.0 | 17.0 | 0.00 | 0.00 | 0.00 | 89 | 1021.4 |
| 20260510030302 | 50 | 331 | 7.0 | 12.0 | 0.00 | 0.00 | 0.00 | 89 | 1021.5 |
| 20260510025802 | 50 | 339 | 7.0 | 14.0 | 0.00 | 0.00 | 0.00 | 89 | 1021.4 |
| 20260510025306 | 50 | 345 | 6.0 | 12.0 | 0.00 | 0.00 | 0.00 | 89 | 1021.5 |
| 20260510024805 | 50 | 302 | 5.0 | 12.0 | 0.00 | 0.00 | 0.00 | 89 | 1021.5 |
| 20260510024303 | 50 | 343 | 6.0 | 12.0 | 0.00 | 0.00 | 0.00 | 89 | 1021.6 |
| 20260510023803 | 50 | 353 | 6.0 | 13.0 | 0.00 | 0.00 | 0.00 | 90 | 1021.5 |
| 20260510021802 | 50 | 354 | 7.0 | 12.0 | 0.00 | 0.00 | 0.00 | 90 | 1021.5 |
| 20260510021303 | 50 | 341 | 6.0 | 13.0 | 0.00 | 0.00 | 0.00 | 90 | 1021.5 |
| 20260510020803 | 50 | 350 | 5.0 | 12.0 | 0.00 | 0.00 | 0.00 | 90 | 1021.5 |
| 20260510020303 | 50 | 349 | 7.0 | 13.0 | 0.00 | 0.00 | 0.00 | 90 | 1021.5 |
| 20260510015306 | 50 | 1 | 8.0 | 13.0 | 0.00 | 0.00 | 0.00 | 90 | 1021.6 |
| 20260510014802 | 50 | 3 | 7.0 | 14.0 | 0.00 | 0.00 | 0.00 | 90 | 1021.5 |
| 20260510014303 | 50 | 14 | 6.0 | 18.0 | 0.00 | 0.00 | 0.00 | 90 | 1021.6 |
| 20260510013803 | 50 | 344 | 4.0 | 13.0 | 0.00 | 0.00 | 0.00 | 90 | 1021.6 |
| 20260510013303 | 50 | 346 | 7.0 | 14.0 | 0.00 | 0.00 | 0.00 | 90 | 1021.6 |
| 20260510012803 | 50 | 352 | 6.0 | 12.0 | 0.00 | 0.00 | 0.00 | 90 | 1021.5 |
| 20260510012306 | 50 | 349 | 7.0 | 12.0 | 0.00 | 0.00 | 0.00 | 90 | 1021.5 |
| 20260510011802 | 51 | 336 | 6.0 | 12.0 | 0.00 | 0.00 | 0.00 | 90 | 1021.6 |
| 20260510010802 | 50 | 341 | 7.0 | 13.0 | 0.00 | 0.00 | 0.00 | 89 | 1021.5 |
| 20260510010303 | 51 | 342 | 6.0 | 13.0 | 0.00 | 0.00 | 0.00 | 90 | 1021.5 |
| 20260510005802 | 51 | 346 | 5.0 | 16.0 | 0.00 | 0.00 | 0.00 | 90 | 1021.5 |
| 20260510005306 | 51 | 331 | 6.0 | 14.0 | 0.00 | 0.00 | 0.00 | 90 | 1021.4 |
| 20260510004803 | 51 | 338 | 5.0 | 14.0 | 0.00 | 0.00 | 0.00 | 89 | 1021.5 |
| 20260510004303 | 51 | 344 | 6.0 | 13.0 | 0.00 | 0.00 | 0.00 | 89 | 1021.6 |
| 20260510003802 | 51 | 3 | 5.0 | 12.0 | 0.00 | 0.00 | 0.00 | 89 | 1021.5 |
| 20260510002803 | 51 | 343 | 6.0 | 12.0 | 0.00 | 0.00 | 0.00 | 89 | 1021.6 |
| 20260510002306 | 51 | 331 | 6.0 | 10.0 | 0.00 | 0.00 | 0.00 | 89 | 1021.7 |
| 20260510001803 | 51 | 350 | 6.0 | 13.0 | 0.00 | 0.00 | 0.00 | 89 | 1021.7 |
| 20260510001303 | 51 | 338 | 6.0 | 13.0 | 0.00 | 0.00 | 0.00 | 89 | 1021.9 |
| 20260510000804 | 51 | 345 | 5.0 | 14.0 | 0.00 | 0.00 | 0.00 | 89 | 1021.9 |
| 20260510000304 | 51 | 352 | 6.0 | 13.0 | 0.00 | 0.00 | 0.00 | 90 | 1021.9 |
| 20260509235803 | 51 | 353 | 5.0 | 12.0 | 0.00 | 0.00 | 0.00 | 90 | 1021.9 |
| 20260509235306 | 51 | 346 | 7.0 | 15.0 | 0.00 | 0.00 | 0.00 | 90 | 1021.9 |
| 20260509234803 | 51 | 332 | 6.0 | 15.0 | 0.00 | 0.00 | 0.00 | 90 | 1022.0 |
| 20260509234302 | 51 | 346 | 6.0 | 12.0 | 0.00 | 0.00 | 0.00 | 90 | 1021.9 |
| 20260509233303 | 51 | 0 | 4.0 | 9.0 | 0.00 | 0.00 | 0.00 | 90 | 1021.8 |
| 20260509232804 | 51 | 336 | 3.0 | 12.0 | 0.00 | 0.00 | 0.00 | 90 | 1021.7 |
| 20260509232306 | 51 | 333 | 3.0 | 9.0 | 0.00 | 0.00 | 0.00 | 90 | 1021.7 |
| 20260509231803 | 51 | 297 | 5.0 | 10.0 | 0.00 | 0.00 | 0.00 | 90 | 1021.7 |
| 20260509230803 | 51 | 0 | 4.0 | 8.0 | 0.00 | 0.00 | 0.00 | 90 | 1021.6 |
| 20260509230303 | 51 | 3 | 5.0 | 10.0 | 0.00 | 0.00 | 0.00 | 90 | 1021.6 |
| 20260509225802 | 51 | 14 | 3.0 | 7.0 | 0.00 | 0.00 | 0.00 | 90 | 1021.6 |
| 20260509225305 | 50 | 4 | 2.0 | 7.0 | 0.00 | 0.00 | 0.00 | 90 | 1021.5 |
| 20260509224803 | 50 | 332 | 4.0 | 10.0 | 0.00 | 0.00 | 0.00 | 90 | 1021.4 |
| 20260509224304 | 50 | 359 | 4.0 | 14.0 | 0.00 | 0.00 | 0.00 | 90 | 1021.4 |
| 20260509223803 | 50 | 4 | 5.0 | 9.0 | 0.00 | 0.00 | 0.00 | 90 | 1021.3 |
| 20260509223303 | 50 | 10 | 5.0 | 12.0 | 0.00 | 0.00 | 0.00 | 90 | 1021.4 |
| 20260509222804 | 50 | 0 | 3.0 | 9.0 | 0.00 | 0.00 | 0.00 | 90 | 1021.5 |
| 20260509222306 | 50 | 4 | 4.0 | 8.0 | 0.00 | 0.00 | 0.00 | 90 | 1021.5 |
| 20260509221303 | 50 | 348 | 3.0 | 12.0 | 0.00 | 0.00 | 0.00 | 90 | 1021.4 |
| 20260509220803 | 50 | 338 | 4.0 | 10.0 | 0.00 | 0.00 | 0.00 | 90 | 1021.4 |
| 20260509215803 | 51 | 5 | 5.0 | 12.0 | 0.00 | 0.00 | 0.00 | 90 | 1021.2 |
| 20260509214803 | 51 | 338 | 3.0 | 6.0 | 0.00 | 0.00 | 0.00 | 90 | 1021.4 |
| 20260509214302 | 51 | 358 | 5.0 | 9.0 | 0.00 | 0.00 | 0.00 | 91 | 1021.4 |
| 20260509213803 | 51 | 4 | 5.0 | 9.0 | 0.00 | 0.00 | 0.00 | 90 | 1021.5 |
| 20260509213303 | 51 | 355 | 5.0 | 7.0 | 0.00 | 0.00 | 0.00 | 90 | 1021.5 |
| 20260509212802 | 51 | 350 | 3.0 | 10.0 | 0.00 | 0.00 | 0.00 | 90 | 1021.5 |
| 20260509211802 | 51 | 351 | 5.0 | 12.0 | 0.00 | 0.00 | 0.00 | 90 | 1021.4 |
| 20260509211302 | 51 | 347 | 5.0 | 12.0 | 0.00 | 0.00 | 0.00 | 90 | 1021.4 |
| 20260509210803 | 51 | 8 | 4.0 | 10.0 | 0.00 | 0.00 | 0.00 | 90 | 1021.4 |
| 20260509210303 | 51 | 325 | 6.0 | 10.0 | 0.00 | 0.00 | 0.00 | 89 | 1021.4 |
| 20260509205803 | 51 | 354 | 5.0 | 12.0 | 0.00 | 0.00 | 0.00 | 89 | 1021.4 |
| 20260509205306 | 51 | 353 | 5.0 | 12.0 | 0.00 | 0.00 | 0.00 | 89 | 1021.4 |
| 20260509204803 | 51 | 339 | 6.0 | 12.0 | 0.00 | 0.00 | 0.00 | 88 | 1021.3 |
| 20260509204302 | 51 | 340 | 3.0 | 9.0 | 0.00 | 0.00 | 0.00 | 87 | 1021.2 |
| 20260509203803 | 51 | 335 | 6.0 | 12.0 | 0.00 | 0.00 | 0.00 | 87 | 1021.4 |
| 20260509203303 | 51 | 329 | 5.0 | 8.0 | 0.00 | 0.00 | 0.00 | 86 | 1021.4 |
| 20260509202803 | 51 | 315 | 4.0 | 7.0 | 0.00 | 0.00 | 0.00 | 85 | 1021.5 |
| 20260509201803 | 51 | 319 | 2.0 | 7.0 | 0.00 | 0.00 | 0.00 | 85 | 1021.5 |
| 20260509201303 | 51 | 344 | 3.0 | 7.0 | 0.00 | 0.00 | 0.00 | 85 | 1021.4 |
| 20260509200803 | 51 | 339 | 3.0 | 8.0 | 0.00 | 0.00 | 0.00 | 85 | 1021.3 |
| 20260509200302 | 51 | 343 | 3.0 | 8.0 | 0.00 | 0.00 | 0.00 | 85 | 1021.1 |
| 20260509195803 | 51 | 344 | 3.0 | 7.0 | 0.00 | 0.00 | 0.00 | 85 | 1021.1 |
| 20260509194803 | 51 | 332 | 3.0 | 6.0 | 0.00 | 0.00 | 0.00 | 86 | 1021.2 |
| 20260509194302 | 52 | 326 | 2.0 | 6.0 | 0.00 | 0.00 | 0.00 | 86 | 1021.2 |
| 20260509193303 | 52 | 347 | 3.0 | 7.0 | 0.00 | 0.00 | 0.00 | 86 | 1021.1 |
| 20260509192803 | 52 | 357 | 2.0 | 6.0 | 0.00 | 0.00 | 0.00 | 86 | 1020.9 |
| 20260509192306 | 52 | 336 | 4.0 | 10.0 | 0.00 | 0.00 | 0.00 | 86 | 1020.9 |
| 20260509191803 | 52 | 352 | 5.0 | 9.0 | 0.00 | 0.00 | 0.00 | 86 | 1020.9 |
| 20260509191303 | 52 | 9 | 3.0 | 9.0 | 0.00 | 0.00 | 0.00 | 86 | 1021.1 |
| 20260509190803 | 53 | 348 | 3.0 | 8.0 | 0.00 | 0.00 | 0.00 | 86 | 1021.0 |
| 20260509190303 | 53 | 347 | 5.0 | 12.0 | 0.00 | 0.00 | 0.00 | 86 | 1020.8 |
| 20260509185804 | 53 | 10 | 5.0 | 10.0 | 0.00 | 0.00 | 0.00 | 85 | 1020.8 |
| 20260509185306 | 53 | 351 | 5.0 | 8.0 | 0.00 | 0.00 | 0.00 | 85 | 1020.9 |
| 20260509184802 | 53 | 9 | 7.0 | 10.0 | 0.00 | 0.00 | 0.00 | 85 | 1020.9 |
| 20260509184304 | 54 | 1 | 6.0 | 9.0 | 0.00 | 0.00 | 0.00 | 85 | 1021.0 |
| 20260509183806 | 54 | 335 | 5.0 | 8.0 | 0.00 | 0.00 | 0.00 | 84 | 1021.0 |
| 20260509183304 | 54 | 18 | 5.0 | 7.0 | 0.00 | 0.00 | 0.00 | 84 | 1020.9 |
| 20260509182806 | 54 | 28 | 5.0 | 10.0 | 0.00 | 0.00 | 0.00 | 84 | 1020.8 |
| 20260509182306 | 54 | 24 | 2.0 | 7.0 | 0.00 | 0.00 | 0.00 | 83 | 1020.8 |
| 20260509181802 | 54 | 6 | 3.0 | 9.0 | 0.00 | 0.00 | 0.00 | 83 | 1020.9 |
| 20260509181303 | 54 | 21 | 4.0 | 9.0 | 0.00 | 0.00 | 0.00 | 82 | 1020.8 |
| 20260509180803 | 54 | 13 | 5.0 | 9.0 | 0.00 | 0.00 | 0.00 | 81 | 1020.6 |
| 20260509180303 | 55 | 6 | 6.0 | 8.0 | 0.00 | 0.00 | 0.00 | 81 | 1020.6 |
| 20260509175804 | 55 | 19 | 4.0 | 7.0 | 0.00 | 0.00 | 0.00 | 79 | 1020.6 |
| 20260509174302 | 55 | 35 | 2.0 | 7.0 | 0.00 | 0.00 | 0.00 | 79 | 1020.5 |
| 20260509173803 | 55 | 359 | 3.0 | 9.0 | 0.00 | 0.00 | 0.00 | 79 | 1020.4 |
| 20260509173302 | 55 | 54 | 3.0 | 7.0 | 0.00 | 0.00 | 0.00 | 79 | 1020.3 |
| 20260509172803 | 55 | 44 | 2.0 | 8.0 | 0.00 | 0.00 | 0.00 | 79 | 1020.4 |
| 20260509172306 | 55 | 29 | 3.0 | 8.0 | 0.00 | 0.00 | 0.00 | 79 | 1020.4 |
| 20260509171305 | 55 | 18 | 2.0 | 3.0 | 0.00 | 0.00 | 0.00 | 78 | 1020.1 |
| 20260509170305 | 55 | 22 | 2.0 | 5.0 | 0.00 | 0.00 | 0.00 | 77 | 1020.4 |
| 20260509165306 | 56 | 347 | 3.0 | 6.0 | 0.00 | 0.00 | 0.00 | 76 | 1020.4 |
| 20260509164803 | 56 | 348 | 4.0 | 7.0 | 0.00 | 0.00 | 0.00 | 75 | 1020.5 |
| 20260509164303 | 57 | 353 | 3.0 | 8.0 | 0.00 | 0.00 | 0.00 | 75 | 1020.4 |
| 20260509163805 | 56 | 337 | 2.0 | 7.0 | 0.00 | 0.00 | 0.00 | 73 | 1020.3 |
| 20260509163303 | 57 | 25 | 3.0 | 8.0 | 0.00 | 0.00 | 0.00 | 73 | 1020.2 |
| 20260509162803 | 57 | 33 | 4.0 | 7.0 | 0.00 | 0.00 | 0.00 | 72 | 1020.2 |
| 20260509162307 | 57 | 28 | 5.0 | 9.0 | 0.00 | 0.00 | 0.00 | 71 | 1020.2 |
| 20260509161805 | 57 | 351 | 4.0 | 10.0 | 0.00 | 0.00 | 0.00 | 71 | 1020.2 |
| 20260509161309 | 57 | 43 | 5.0 | 8.0 | 0.00 | 0.00 | 0.00 | 70 | 1020.2 |
| 20260509160805 | 57 | 36 | 3.0 | 12.0 | 0.00 | 0.00 | 0.00 | 70 | 1020.1 |
| 20260509155803 | 57 | 351 | 5.0 | 10.0 | 0.00 | 0.00 | 0.00 | 69 | 1020.1 |
| 20260509154303 | 57 | 45 | 5.0 | 10.0 | 0.00 | 0.00 | 0.00 | 69 | 1020.1 |
| 20260509153802 | 57 | 50 | 7.0 | 12.0 | 0.00 | 0.00 | 0.00 | 66 | 1019.9 |
| 20260509153303 | 57 | 43 | 6.0 | 12.0 | 0.00 | 0.00 | 0.00 | 67 | 1020.0 |